Dewpoint
10 9 12 13 12 11 9 10 6 6 3 2 1 -0 9 9 10 11 9 4 11 10 10 8 7 2 -3 6 -2 -1 1 2 4
11 9 11 13 12 11 10 9 10 7 7 4 4 2 5 9 9 10 10 -3 7 10 9 7 9 9 3 4 2 2 2 2 3
10 10 7 12 13 12 12 10 9 10 8 7 6 5 8 9 9 11 4 -4 1 8 10 7 5 8 7 6 9 4 3 4 3
10 9 8 7 13 13 12 12 10 10 9 8 8 6 8 10 9 9 8 5 -4 3 9 6 4 5 6 7 7 8 8 6 7
9 9 9 7 7 12 13 13 12 11 10 10 9 8 9 10 10 9 2 8 3 -1 1 5 7 5 4 5 7 7 5 4 4
12 10 10 9 7 10 11 12 12 12 11 11 10 10 12 11 11 11 2 7 9 4 8 10 9 8 8 5 4 6 7 5 2
12 12 12 11 10 9 11 12 11 12 13 12 11 11 12 12 11 10 7 -0 8 7 2 7 8 9 9 8 6 3 4 7 4
12 12 12 12 11 10 9 11 12 13 13 13 12 12 12 12 12 10 8 3 0 5 6 5 5 6 9 8 8 6 3 3 6
12 12 12 12 12 11 10 9 11 12 12 13 13 12 13 13 12 11 8 9 7 3 5 6 7 6 6 8 7 7 7 5 1
12 12 12 12 12 12 11 10 9 10 12 13 12 12 11 10 12 12 10 8 9 8 5 5 5 6 8 7 7 6 6 5 3
11 11 11 12 12 12 12 12 11 10 9 10 10 10 10 10 9 12 12 9 9 9 9 8 7 7 8 9 8 7 7 5 5
7 9 10 10 11 11 11 11 11 12 12 11 10 10 9 8 8 9 12 12 9 9 9 9 9 9 8 9 10 9 9 7 4
-7 -3 0 2 5 7 9 10 11 11 11 11 11 11 11 10 9 8 9 11 11 9 9 9 9 9 9 10 11 11 10 9 8
-29 -27 -27 -26 -21 -15 -8 -2 2 5 6 6 6 5 4 6 10 10 8 9 10 11 9 9 9 10 10 9 8 10 11 10 8
-33 -31 -31 -32 -32 -32 -33 -33 -31 -26 -21 -15 -9 -5 -3 -2 -0 3 9 9 9 11 11 11 10 9 10 10 10 9 9 10 8
-35 -34 -33 -32 -31 -31 -31 -32 -32 -33 -33 -34 -34 -34 -33 -30 -18 -7 -1 7 9 10 11 11 11 11 10 10 10 10 10 10 8
-36 -35 -35 -33 -32 -31 -30 -30 -29 -30 -30 -31 -31 -18 -7 -9 -19 -26 -12 0 6 9 10 11 12 11 12 12 10 10 10 10 10
-38 -37 -37 -35 -34 -33 -31 -29 -28 -28 -27 -28 -26 -9 -3 -1 -4 -2 1 6 8 9 10 11 11 11 12 11 11 11 11 10 10
-38 -38 -38 -37 -35 -33 -32 -30 -28 -27 -26 -25 -26 -26 -18 -14 -9 -8 3 -1 1 2 7 9 9 9 9 10 11 11 10 10 10
-39 -39 -38 -37 -36 -35 -32 -29 -28 -26 -23 -23 -23 -24 -23 -23 -20 -10 -8 -11 -1 2 3 4 7 8 7 7 8 10 10 11 11
Wind_Speed
10 10 11 10 9 7 7 9 10 11 12 12 13 13 19 15 10 11 9 10 12 12 13 14 16 17 16 16 14 14 13 14 15
11 10 10 10 10 8 6 6 8 8 10 12 13 12 12 11 9 10 5 9 9 11 12 13 15 16 16 16 15 15 14 14 14
11 12 11 11 10 9 7 5 5 5 6 8 10 12 15 10 11 10 11 11 9 9 11 12 13 14 16 15 16 15 15 15 14
9 10 10 10 10 10 9 6 4 4 4 4 7 9 13 10 10 9 7 10 9 7 8 11 12 12 13 14 14 15 15 15 15
10 10 10 10 11 11 10 8 5 3 4 2 3 6 11 7 8 7 7 8 9 8 6 8 11 12 11 12 13 13 13 14 14
13 11 10 9 9 10 11 10 8 5 5 4 2 4 5 2 4 3 6 4 7 8 6 6 8 10 12 12 10 11 12 12 13
13 12 12 11 10 10 10 11 10 5 4 5 4 1 1 0 1 2 5 3 6 7 6 5 7 8 9 12 14 11 10 10 11
16 15 15 14 14 13 13 13 14 11 11 7 2 2 3 1 2 4 1 4 1 4 6 5 4 5 7 9 11 13 11 9 8
17 17 16 16 17 16 15 14 14 14 14 7 6 8 6 3 4 7 4 2 1 0 1 2 2 3 3 5 8 10 11 12 9
16 18 18 17 18 17 17 17 15 16 16 13 10 9 11 10 7 5 8 6 4 2 0 0 1 2 2 2 5 6 7 9 10
17 18 19 19 17 19 19 18 17 15 15 16 15 14 13 13 13 8 9 10 9 7 4 2 1 1 1 2 3 5 6 8 7
16 17 17 16 16 16 17 17 18 19 19 19 18 17 17 17 15 13 9 10 12 11 9 6 5 3 4 3 3 3 5 7 7
15 16 16 16 15 15 16 16 17 18 18 19 20 20 20 20 19 17 16 12 13 14 13 11 9 8 5 6 7 6 4 6 9
13 14 14 14 15 16 16 17 18 18 19 20 20 20 20 20 20 20 19 18 18 18 17 14 13 12 9 7 7 8 8 6 6
13 13 13 13 13 14 14 15 16 18 19 20 21 21 21 20 21 22 21 20 19 19 18 18 17 15 14 13 9 9 10 9 7
13 12 12 12 12 12 13 13 14 15 15 16 17 17 17 19 20 21 22 22 21 20 18 18 18 17 16 16 14 12 12 12 8
11 11 11 11 11 12 12 12 12 13 12 11 10 4 6 9 13 17 19 20 18 17 19 16 16 19 15 14 17 17 15 14 12
9 10 10 10 11 11 11 11 11 11 11 9 8 2 3 6 7 5 6 12 15 16 17 19 17 18 20 16 16 19 19 19 15
8 8 9 10 10 10 10 11 10 10 11 9 10 11 10 4 1 5 7 11 14 20 23 26 29 27 27 26 23 20 23 21 21
7 8 8 8 9 10 10 10 10 10 10 10 10 10 10 10 10 8 8 12 8 15 17 23 24 25 27 25 28 30 29 27 26
Wind_Direction
173 162 165 164 153 136 119 104 94 82 74 72 70 89 75 64 76 64 39 91 76 65 55 51 51 51 55 57 54 56 56 52 51
178 171 171 169 169 160 146 127 106 95 82 75 69 67 75 69 78 74 58 90 91 69 61 54 53 51 53 54 56 55 56 56 51
184 185 181 183 181 176 172 159 135 116 91 83 76 66 71 51 63 76 55 77 99 78 58 56 51 54 58 54 51 53 52 51 52
192 193 193 188 194 191 183 188 175 161 131 86 80 74 76 58 62 63 57 57 83 96 65 59 52 44 49 56 51 51 50 52 51
203 201 199 201 199 203 202 198 205 198 194 160 81 75 68 60 51 33 55 68 64 78 64 56 56 50 40 47 51 48 47 49 52
211 201 208 206 206 206 209 215 223 227 236 222 191 71 57 28 51 21 40 108 79 55 38 33 47 54 44 35 37 46 43 45 48
222 209 208 208 210 213 213 213 220 227 294 278 242 132 151 319 34 294 45 85 113 91 70 39 25 31 41 38 34 28 34 43 44
216 212 212 212 210 212 214 213 208 195 196 231 217 215 238 262 301 303 34 65 89 114 106 92 51 41 27 25 26 30 27 18 36
221 225 215 215 216 213 212 216 222 225 225 239 249 233 214 204 278 286 280 290 43 154 128 110 73 53 59 32 19 18 24 19 3
226 231 234 228 220 219 218 216 218 222 230 234 240 255 254 245 209 254 271 259 260 284 180 240 338 348 34 54 45 34 26 18 16
225 230 237 236 227 229 226 227 225 230 233 234 246 251 260 264 259 227 266 262 257 256 269 303 290 296 311 4 7 27 26 28 19
229 231 233 235 236 232 236 234 240 240 245 246 244 250 254 257 261 260 239 268 257 258 259 268 287 302 284 273 287 335 357 13 19
229 230 231 233 237 236 236 238 241 245 248 252 254 254 254 256 258 257 257 250 256 256 253 257 264 277 288 273 270 278 307 350 2
234 233 236 239 240 242 243 245 245 248 252 257 260 260 261 260 258 260 258 255 253 254 260 257 260 262 272 280 289 275 274 307 344
231 236 238 243 244 247 248 250 252 254 256 258 261 263 264 263 262 260 258 259 258 256 248 256 257 259 262 267 272 286 277 276 300
234 236 239 240 246 249 253 254 256 258 264 267 267 271 272 265 260 256 254 253 255 254 250 253 253 260 260 257 262 264 277 274 286
241 241 244 244 244 248 255 257 258 260 262 266 277 292 283 278 259 248 246 246 253 261 257 251 254 255 251 265 254 257 259 267 273
243 244 244 243 248 247 250 255 257 262 262 256 244 238 201 261 287 257 228 230 227 234 234 230 233 240 239 238 252 256 252 258 261
254 250 250 248 248 248 247 248 250 250 256 255 243 239 245 234 152 288 242 248 229 245 240 243 246 251 255 254 253 250 257 254 255
260 260 257 254 254 255 252 250 247 247 250 250 251 246 247 248 244 239 240 263 252 248 247 247 251 253 255 261 261 257 257 253 253
Height
1529 1532 1533 1535 1536 1537 1538 1539 1539 1540 1540 1540 1541 1541 1542 1542 1544 1546 1542 1542 1542 1542 1542 1541 1540 1539 1537 1536 1535 1534 1533 1533 1532
1530 1532 1534 1535 1537 1538 1540 1540 1541 1542 1543 1543 1543 1544 1544 1545 1544 1545 1543 1543 1544 1544 1543 1544 1543 1542 1542 1540 1539 1538 1537 1535 1535
1530 1532 1534 1536 1538 1539 1540 1541 1542 1543 1544 1544 1545 1545 1546 1548 1546 1547 1546 1544 1545 1546 1546 1546 1546 1544 1543 1544 1543 1541 1540 1539 1537
1531 1532 1534 1536 1538 1539 1540 1542 1543 1544 1545 1546 1546 1547 1548 1550 1549 1550 1548 1548 1546 1547 1547 1547 1548 1548 1547 1545 1545 1544 1543 1542 1541
1530 1532 1534 1536 1538 1540 1541 1542 1544 1545 1546 1547 1547 1549 1549 1552 1552 1551 1549 1549 1550 1549 1549 1549 1548 1549 1549 1548 1548 1547 1546 1545 1544
1529 1532 1534 1536 1538 1540 1541 1543 1545 1545 1546 1547 1548 1549 1551 1553 1553 1552 1550 1549 1550 1552 1551 1551 1551 1550 1551 1551 1550 1549 1549 1548 1547
1529 1531 1533 1535 1537 1539 1541 1542 1544 1547 1547 1547 1549 1550 1552 1553 1553 1552 1552 1551 1550 1550 1551 1552 1552 1552 1551 1553 1552 1551 1551 1550 1549
1527 1529 1531 1534 1535 1537 1540 1541 1543 1546 1547 1548 1548 1550 1552 1554 1553 1552 1553 1552 1552 1552 1551 1551 1552 1552 1553 1553 1553 1553 1552 1553 1551
1525 1527 1529 1532 1533 1535 1537 1539 1540 1545 1546 1548 1548 1548 1551 1553 1553 1553 1554 1554 1553 1553 1553 1553 1553 1553 1552 1553 1554 1554 1554 1553 1554
1522 1525 1527 1529 1531 1533 1535 1537 1538 1540 1544 1546 1547 1547 1547 1550 1551 1552 1553 1553 1553 1554 1553 1553 1553 1554 1553 1553 1552 1553 1554 1554 1554
1520 1522 1525 1528 1529 1531 1532 1535 1536 1538 1540 1542 1545 1546 1547 1547 1549 1550 1552 1553 1553 1553 1553 1553 1553 1553 1553 1554 1554 1554 1554 1553 1554
1518 1520 1522 1525 1528 1528 1530 1532 1534 1535 1537 1540 1540 1542 1544 1545 1546 1548 1549 1551 1552 1553 1553 1553 1553 1553 1554 1552 1554 1553 1554 1554 1553
1517 1517 1519 1521 1524 1526 1527 1528 1530 1531 1532 1536 1536 1538 1540 1542 1543 1544 1545 1547 1549 1550 1552 1551 1551 1552 1552 1552 1553 1553 1553 1554 1554
1515 1515 1518 1519 1521 1523 1524 1525 1527 1527 1528 1530 1533 1534 1535 1538 1540 1541 1541 1543 1544 1548 1549 1550 1550 1550 1551 1551 1551 1552 1552 1553 1553
1511 1514 1515 1517 1518 1521 1521 1522 1524 1525 1525 1526 1528 1529 1531 1533 1535 1537 1538 1540 1541 1544 1544 1546 1547 1548 1549 1550 1549 1551 1551 1552 1552
1509 1511 1512 1514 1516 1517 1520 1520 1521 1521 1523 1523 1523 1524 1526 1527 1529 1532 1533 1536 1537 1539 1542 1542 1544 1545 1546 1547 1547 1548 1550 1551 1550
1506 1507 1509 1511 1512 1514 1516 1519 1519 1519 1520 1522 1522 1522 1525 1523 1523 1525 1528 1531 1534 1535 1538 1540 1541 1541 1543 1543 1544 1546 1547 1549 1548
1504 1505 1507 1508 1510 1510 1513 1517 1518 1518 1519 1520 1522 1522 1521 1521 1522 1522 1525 1528 1529 1530 1532 1533 1535 1536 1537 1538 1541 1541 1543 1546 1545
1502 1504 1506 1506 1507 1509 1510 1514 1515 1516 1517 1518 1519 1519 1520 1519 1522 1521 1522 1523 1524 1524 1527 1528 1528 1531 1534 1534 1537 1537 1539 1540 1541
1500 1502 1503 1503 1505 1507 1509 1510 1512 1512 1515 1515 1516 1518 1517 1519 1519 1520 1520 1519 1522 1520 1521 1521 1524 1525 1528 1529 1531 1530 1532 1535 1536